Weather History for KMWK - August, 2013

Change the Weather History Date:

Saturday, August 17, 2013

  Actual Average (KINT) Record (KINT)
Temperature  
Mean Temperature 63 °F -  
Max Temperature 69 °F 84 °F 96 °F (2007)
Min Temperature 57 °F 66 °F 49 °F (1979)
Degree Days  
Heating Degree Days 2    
Growing Degree Days 13 (Base 50)    
Moisture  
Dew Point 59 °F    
Average Humidity 85    
Maximum Humidity 90    
Minimum Humidity 71    
Precipitation  
Precipitation 0.08 in - - ()
Sea Level Pressure  
Sea Level Pressure 30.26 in    
Wind  
Wind Speed 3 mph (NE)    
Max Wind Speed 14 mph    
Max Gust Speed 22 mph    
Visibility 10 miles    
Events Rain    
Averages and records for this station are not official NWS values.
T = Trace of Precipitation, MM = Missing Value Source: NWS Daily Summary

Daily Weather History Graph

Daily Weather History Graph

Search for Another Location

Airport or City:

Trip Planner

Search our weather history database for the weather conditions in past years. The results will help you decide how hot, cold, wet, or windy it might be!

Date:

Astronomy

Aug. 17, 2013 Rise Set
Actual Time 6:41 AM EDT 8:10 PM EDT
Civil Twilight 6:14 AM EDT 8:37 PM EDT
Nautical Twilight 5:41 AM EDT 9:09 PM EDT
Astronomical Twilight 5:07 AM EDT 9:44 PM EDT
Moon 5:21 PM EDT (8/17) 2:46 AM EDT (8/17)
Length of Visible Light 14h 22m
Length of Day
13h 28m
Waxing Gibbous, 84% of the Moon is Illuminated
Aug 17
Waxing Gibbous
Aug 20
Full
Aug 28
Last Quarter
Sep 5
New
Sep 12
First Quarter

Hourly Weather History & Observations

Time (EDT) Temp. Dew Point Humidity Pressure Visibility Wind Dir Wind Speed Gust Speed Precip Events Conditions
12:15 AM 60.8 °F 57.2 °F 88% 30.27 in 10.0 mi Calm Calm - N/A   Clear
12:35 AM 60.3 °F 57.2 °F 90% 30.27 in 10.0 mi Calm Calm - N/A   Clear
12:55 AM 60.3 °F 57.2 °F 90% 30.27 in 10.0 mi Calm Calm - N/A   Clear
1:15 AM 59.9 °F 56.7 °F 89% 30.26 in 10.0 mi Calm Calm - N/A   Clear
1:35 AM 60.3 °F 56.7 °F 88% 30.25 in 10.0 mi Calm Calm - N/A   Clear
1:55 AM 60.3 °F 56.7 °F 88% 30.25 in 10.0 mi Calm Calm - N/A   Clear
2:15 AM 60.3 °F 56.5 °F 87% 30.26 in 10.0 mi Calm Calm - N/A   Clear
2:35 AM 60.1 °F 56.5 °F 88% 30.25 in 10.0 mi Calm Calm - N/A   Clear
2:55 AM 59.9 °F 56.3 °F 88% 30.25 in 10.0 mi Calm Calm - N/A   Clear
3:15 AM 59.4 °F 55.8 °F 88% 30.25 in 10.0 mi Calm Calm - N/A   Clear
3:35 AM 59.0 °F 55.4 °F 88% 30.25 in 10.0 mi Calm Calm - N/A   Clear
3:55 AM 59.4 °F 55.6 °F 87% 30.25 in 10.0 mi Calm Calm - N/A   Scattered Clouds
4:15 AM 59.9 °F 55.6 °F 86% 30.25 in 10.0 mi Calm Calm - N/A   Scattered Clouds
4:35 AM 58.3 °F 55.0 °F 89% 30.25 in 10.0 mi Calm Calm - N/A   Clear
4:55 AM 57.6 °F 54.7 °F 90% 30.25 in 10.0 mi Calm Calm - N/A   Scattered Clouds
5:15 AM 57.9 °F 55.0 °F 90% 30.25 in 10.0 mi Calm Calm - N/A   Clear
5:35 AM 58.3 °F 55.4 °F 90% 30.25 in 10.0 mi Calm Calm - N/A   Scattered Clouds
5:55 AM 58.3 °F 55.4 °F 90% 30.26 in 10.0 mi Calm Calm - N/A   Scattered Clouds
6:15 AM 58.5 °F 55.6 °F 90% 30.25 in 10.0 mi Calm Calm - N/A   Scattered Clouds
6:35 AM 58.8 °F 55.8 °F 90% 30.26 in 10.0 mi Calm Calm - N/A   Clear
6:55 AM 59.2 °F 55.8 °F 88% 30.27 in 10.0 mi Calm Calm - N/A   Clear
7:15 AM 59.9 °F 55.9 °F 87% 30.27 in 10.0 mi North 3.5 mph - N/A   Scattered Clouds
7:35 AM 60.3 °F 56.3 °F 87% 30.27 in 10.0 mi Calm Calm - N/A   Scattered Clouds
7:55 AM 60.1 °F 57.0 °F 90% 30.27 in 10.0 mi Calm Calm - N/A   Mostly Cloudy
8:15 AM 61.5 °F 58.1 °F 89% 30.27 in 10.0 mi Calm Calm - N/A   Overcast
8:35 AM 62.2 °F 59.0 °F 89% 30.27 in 10.0 mi Calm Calm - N/A   Mostly Cloudy
8:55 AM 62.6 °F 58.6 °F 87% 30.28 in 10.0 mi Calm Calm - N/A   Scattered Clouds
9:15 AM 64.2 °F 60.3 °F 87% 30.28 in 10.0 mi Calm Calm - N/A   Scattered Clouds
9:35 AM 66.4 °F 59.4 °F 78% 30.28 in 10.0 mi ENE 4.6 mph - N/A   Scattered Clouds
9:55 AM 67.5 °F 59.4 °F 75% 30.28 in 10.0 mi ENE 6.9 mph - N/A   Mostly Cloudy
10:15 AM 68.0 °F 60.1 °F 76% 30.28 in 10.0 mi NE 8.1 mph - N/A   Overcast
10:35 AM 68.5 °F 60.6 °F 76% 30.29 in 10.0 mi ENE 8.1 mph - N/A   Mostly Cloudy
10:55 AM 68.5 °F 59.9 °F 74% 30.30 in 10.0 mi ENE 11.5 mph 21.9 mph N/A   Mostly Cloudy
11:15 AM 68.0 °F 59.7 °F 75% 30.30 in 10.0 mi ENE 10.4 mph - N/A   Overcast
11:35 AM 68.9 °F 60.1 °F 73% 30.29 in 10.0 mi ENE 10.4 mph - N/A   Overcast
11:55 AM 68.5 °F 59.9 °F 74% 30.29 in 10.0 mi East 12.7 mph 17.3 mph N/A   Overcast
12:15 PM 69.1 °F 59.2 °F 71% 30.29 in 10.0 mi NE 10.4 mph 18.4 mph N/A   Overcast
12:35 PM 68.9 °F 59.2 °F 71% 30.29 in 10.0 mi NE 8.1 mph 18.4 mph N/A   Overcast
12:55 PM 68.5 °F 59.0 °F 72% 30.29 in 10.0 mi NE 8.1 mph 16.1 mph N/A   Overcast
1:15 PM 68.7 °F 59.4 °F 72% 30.28 in 10.0 mi NE 9.2 mph - N/A   Overcast
1:35 PM 68.5 °F 59.4 °F 72% 30.27 in 10.0 mi NE 8.1 mph - N/A   Overcast
1:55 PM 68.0 °F 59.7 °F 75% 30.27 in 10.0 mi ENE 4.6 mph 16.1 mph N/A   Overcast
2:15 PM 67.3 °F 60.6 °F 79% 30.26 in 7.0 mi ENE 3.5 mph - N/A   Overcast
2:35 PM 67.8 °F 61.0 °F 79% 30.26 in 10.0 mi NE 6.9 mph - N/A   Overcast
2:55 PM 67.1 °F 60.8 °F 80% 30.25 in 10.0 mi ENE 5.8 mph - N/A   Overcast
3:15 PM 67.1 °F 61.2 °F 81% 30.25 in 10.0 mi NE 6.9 mph - N/A Rain Light Rain
3:35 PM 66.9 °F 61.9 °F 84% 30.24 in 10.0 mi NE 6.9 mph - N/A Rain Light Rain
3:55 PM 66.4 °F 62.1 °F 86% 30.24 in 10.0 mi NE 5.8 mph - N/A   Light Drizzle
4:15 PM 66.2 °F 61.7 °F 85% 30.24 in 10.0 mi ENE 5.8 mph - N/A   Overcast
4:35 PM 66.2 °F 62.1 °F 86% 30.24 in 10.0 mi NE 6.9 mph - N/A   Overcast
4:55 PM 66.2 °F 62.1 °F 86% 30.24 in 10.0 mi NE 4.6 mph - N/A Rain Light Rain
5:15 PM 65.7 °F 62.1 °F 88% 30.24 in 10.0 mi Calm Calm - N/A   Light Drizzle
5:35 PM 65.5 °F 62.1 °F 89% 30.24 in 10.0 mi East 8.1 mph - N/A   Light Drizzle
5:55 PM 65.5 °F 62.1 °F 89% 30.24 in 10.0 mi ENE 3.5 mph - N/A Rain Light Rain
6:15 PM 65.3 °F 62.2 °F 90% 30.24 in 10.0 mi ENE 3.5 mph - 0.01 in Rain Rain
6:35 PM 65.3 °F 62.1 °F 89% 30.24 in 10.0 mi ENE 3.5 mph - 0.01 in   Light Drizzle
6:55 PM 65.3 °F 62.1 °F 89% 30.23 in 10.0 mi NE 5.8 mph - 0.02 in   Light Drizzle
7:15 PM 65.5 °F 62.1 °F 89% 30.24 in 10.0 mi NE 5.8 mph - N/A   Overcast
7:35 PM 65.5 °F 62.1 °F 89% 30.24 in 10.0 mi NE 3.5 mph - N/A   Overcast
7:55 PM 65.3 °F 61.7 °F 88% 30.23 in 10.0 mi NE 3.5 mph - N/A   Overcast
8:15 PM 64.9 °F 61.7 °F 89% 30.24 in 10.0 mi NE 5.8 mph - N/A Rain Light Rain
8:35 PM 64.6 °F 61.7 °F 90% 30.24 in 10.0 mi NE 5.8 mph - 0.01 in Rain Rain
8:55 PM 64.6 °F 61.7 °F 90% 30.24 in 10.0 mi ENE 11.5 mph 17.3 mph 0.01 in Rain Rain
9:15 PM 64.8 °F 61.7 °F 90% 30.24 in 10.0 mi ENE 6.9 mph - 0.01 in Rain Light Rain
9:35 PM 64.8 °F 61.9 °F 90% 30.24 in 10.0 mi ENE 6.9 mph - 0.02 in Rain Light Rain
9:55 PM 64.9 °F 62.1 °F 90% 30.24 in 10.0 mi ENE 12.7 mph 19.6 mph 0.03 in Rain Light Rain
10:15 PM 65.3 °F 62.4 °F 90% 30.24 in 10.0 mi ENE 13.8 mph 20.7 mph 0.01 in Rain Light Rain
10:35 PM 65.5 °F 62.6 °F 90% 30.23 in 10.0 mi ENE 11.5 mph 17.3 mph 0.01 in Rain Light Rain
10:55 PM 65.3 °F 62.4 °F 90% 30.24 in 10.0 mi ENE 10.4 mph 19.6 mph 0.01 in   Light Drizzle
11:15 PM 65.5 °F 62.6 °F 90% 30.24 in 10.0 mi ENE 9.2 mph 17.3 mph N/A   Light Drizzle
11:35 PM 65.5 °F 62.6 °F 90% 30.24 in 10.0 mi NE 9.2 mph 16.1 mph 0.01 in   Drizzle
11:55 PM 65.5 °F 62.6 °F 90% 30.24 in 10.0 mi ENE 10.4 mph - 0.01 in Rain Light Rain